Location: ?????????
(38.5999°N, 22.7695°E)
Time: 09:47:24
(UTC+00:00)

Cosmos 2154 Rocket - Pass Details

Date: 21 August 2024
Orbit: 964 x 997 km, 82.9° (Epoch: 07 September)

Event Time Altitude Azimuth Distance (km) Brightness Sun altitude
Rises 02:01:24 0° 357° (N) 3,666 7.4 -19.7°
Reaches altitude 10° 02:03:58 10° 1° (N) 2,713 6.8 -19.3°
Maximum altitude 02:10:05 60° 80° (E) 1,100 4.5 -18.3°
Drops below altitude 10° 02:16:10 10° 160° (SSE) 2,694 6.2 -17.3°
Sets 02:18:42 0° 164° (SSE) 3,639 6.8 -16.9°
